Weather reports worldwide

Advertisment
Shoreham Airport, United Kingdom (3876): temperature & dewpoint: 21.04.2017 04:00:00 - 27.04.2017 04:00:00 (BST)Shoreham Airport, United Kingdom (3876): wind speed & gusts: 21.04.2017 04:00:00 - 27.04.2017 04:00:00 (BST)Shoreham Airport, United Kingdom (3876): wind direction: 21.04.2017 04:00:00 - 27.04.2017 04:00:00 (BST)Shoreham Airport, United Kingdom (3876): reduced air pressure: 21.04.2017 04:00:00 - 27.04.2017 04:00:00 (BST)Shoreham Airport, United Kingdom (3876): visibility: 21.04.2017 04:00:00 - 27.04.2017 04:00:00 (BST)Shoreham Airport, United Kingdom (3876): precipitation: 21.04.2017 04:00:00 - 27.04.2017 04:00:00 (BST)
Date & Time tt [°C] td [°C] ff [km/h] ff [kn] fx [km/h] fx [kn] dd ppp [hPa] vv [km] rr [mm]
27.04.2017 04:00:00 - - - - - - - - - 0,0
27.04.2017 03:00:00 0,9 -0,4 11 6 - - N 1020,5 - 0,0
27.04.2017 02:00:00 1,2 -0,1 13 7 - - N 1020,5 - 0,0
27.04.2017 01:00:00 1,3 0,0 9 5 - - N 1020,6 - 0,0
27.04.2017 00:00:00 1,3 0,0 11 6 - - N 1020,5 - 0,0
26.04.2017 23:00:00 1,6 -0,1 9 5 - - N 1020,5 - 0,0
26.04.2017 22:00:00 2,7 0,4 2 1 - - NW 1020,1 - 0,0
26.04.2017 21:00:00 3,7 1,5 8 4 - - NNW 1019,8 - 0,0
26.04.2017 20:00:00 5,5 1,8 11 6 - - N 1019,2 10 0,0
26.04.2017 19:00:00 6,8 2,7 13 7 - - N 1018,6 10 0,2
26.04.2017 18:00:00 7,7 2,5 11 6 - - N 1018,5 10 0,0
26.04.2017 17:00:00 6,6 1,2 28 15 46 25 N 1018,4 10 0,0
26.04.2017 16:00:00 7,5 1,9 28 15 - - NE 1017,9 10 0,0
26.04.2017 15:00:00 10,6 0,0 22 12 - - NNW 1017,3 10 0,0
26.04.2017 14:00:00 9,9 0,2 21 11 - - N 1017,2 10 0,2
26.04.2017 13:00:00 8,2 1,9 18 10 - - N 1017,5 10 0,2
26.04.2017 12:00:00 9,6 1,5 18 10 - - N 1017,5 10 0,0
26.04.2017 11:00:00 8,8 1,9 24 13 - - N 1017,4 10 0,0
26.04.2017 10:00:00 7,3 1,9 29 16 - - N 1017,2 10 0,0
26.04.2017 09:00:00 6,0 2,2 28 15 - - N 1016,9 10 0,0
26.04.2017 08:00:00 3,9 2,0 21 11 - - N 1016,8 9 0,0
26.04.2017 07:00:00 2,6 1,2 21 11 - - N 1016,1 - 0,0
26.04.2017 06:00:00 1,6 0,4 18 10 - - N 1015,6 - 0,0
26.04.2017 05:00:00 0,9 0,0 18 10 - - N 1015,5 - 0,0
26.04.2017 04:00:00 0,5 -0,6 15 8 - - N 1015,6 - 0,0
26.04.2017 03:00:00 1,2 0,0 16 9 - - NNW 1015,5 - 0,0
26.04.2017 02:00:00 1,2 0,0 16 9 - - N 1015,6 - 0,0
26.04.2017 01:00:00 1,2 -0,3 13 7 - - N 1015,7 - 0,0
26.04.2017 00:00:00 2,2 0,0 18 10 - - N 1015,4 - 0,0
25.04.2017 23:00:00 3,4 0,3 22 12 - - N 1014,9 - 0,0
25.04.2017 22:00:00 3,5 -0,7 16 9 - - N 1014,5 - 0,0
25.04.2017 21:00:00 4,6 -1,1 18 10 - - N 1014,0 - 0,0
25.04.2017 20:00:00 6,5 -1,3 16 9 - - NNW 1013,4 10 0,0
25.04.2017 19:00:00 9,1 -3,7 16 9 - - N 1012,9 10 0,0
25.04.2017 18:00:00 10,8 -4,6 15 8 - - NNE 1012,6 10 0,0
25.04.2017 17:00:00 10,8 -4,4 15 8 - - NNW 1013,0 10 0,0
25.04.2017 16:00:00 10,0 -5,8 15 8 - - NNW 1013,4 10 0,0
25.04.2017 15:00:00 8,7 -3,9 21 11 - - NNW 1013,8 10 0,0
25.04.2017 14:00:00 8,9 -3,1 21 11 - - N 1013,9 10 0,0
25.04.2017 13:00:00 9,4 -2,9 11 6 - - NNW 1014,0 10 0,0
25.04.2017 12:00:00 8,8 -3,2 15 8 - - N 1014,1 10 0,0
25.04.2017 11:00:00 8,1 -0,1 15 8 - - N 1014,1 10 0,0
25.04.2017 10:00:00 7,0 -0,4 18 10 - - N 1014,0 10 0,0
25.04.2017 09:00:00 5,8 -1,2 16 9 - - NNW 1013,8 10 0,0
25.04.2017 08:00:00 4,7 -2,0 22 12 - - NW 1013,9 - 0,0
25.04.2017 07:00:00 2,2 -3,1 11 6 - - NW 1013,8 - 0,0
25.04.2017 06:00:00 0,4 -4,3 9 5 - - NW 1013,4 - 0,0
25.04.2017 05:00:00 1,7 -4,2 15 8 - - NW 1013,4 - 0,0
25.04.2017 04:00:00 3,0 -3,9 22 12 - - NW 1013,3 - 0,0
25.04.2017 03:00:00 3,2 -4,6 18 10 - - NNW 1013,1 - 0,0
25.04.2017 02:00:00 4,4 -5,0 24 13 48 26 NNW 1012,8 - 0,0
25.04.2017 01:00:00 6,1 -5,5 31 17 55 30 NNW 1012,8 - 0,0
25.04.2017 00:00:00 7,9 -2,4 18 10 - - NW 1012,9 - 0,0
24.04.2017 23:00:00 8,2 0,6 15 8 - - NNW 1012,8 - 0,0
24.04.2017 22:00:00 8,8 5,7 15 8 - - NNW 1012,7 - 0,0
24.04.2017 21:00:00 10,6 4,9 18 10 - - NNW 1012,5 - 0,0
24.04.2017 20:00:00 11,9 5,2 18 10 - - NW 1011,8 10 0,0
24.04.2017 19:00:00 12,8 8,8 16 9 - - W 1011,9 10 0,0
24.04.2017 18:00:00 12,0 8,5 21 11 - - WSW 1012,6 10 0,0
24.04.2017 17:00:00 12,7 7,6 22 12 - - WSW 1013,0 10 0,0
24.04.2017 16:00:00 12,1 8,6 22 12 - - WSW 1013,6 10 0,0
24.04.2017 15:00:00 12,4 9,2 26 14 - - WSW 1014,4 10 0,0
24.04.2017 14:00:00 12,8 7,2 24 13 - - WSW 1015,0 10 0,0
24.04.2017 13:00:00 14,1 10,2 21 11 - - SW 1015,7 10 0,0
24.04.2017 12:00:00 12,8 8,6 21 11 - - SW 1016,5 10 0,0
24.04.2017 11:00:00 14,4 9,0 9 5 - - SW 1017,1 10 0,0
24.04.2017 10:00:00 13,8 8,7 5 3 - - - 1017,5 10 0,0
24.04.2017 09:00:00 12,4 7,5 8 4 - - W 1017,9 - 0,0
24.04.2017 08:00:00 10,4 8,9 8 4 - - W 1018,4 - 0,0
24.04.2017 07:00:00 9,3 8,5 11 6 - - W 1018,5 - 0,0
24.04.2017 06:00:00 9,6 8,6 9 5 - - W 1018,7 - 0,0
24.04.2017 05:00:00 9,7 8,7 9 5 - - W 1019,3 - 0,0
24.04.2017 04:00:00 9,9 8,8 9 5 - - W 1019,9 - 0,0
24.04.2017 03:00:00 10,4 9,1 11 6 - - W 1020,5 - 0,0
24.04.2017 02:00:00 10,2 8,9 13 7 - - WSW 1021,3 - 0,0
24.04.2017 01:00:00 9,7 8,3 11 6 - - SW 1022,0 - 0,0
24.04.2017 00:00:00 8,0 6,2 9 5 - - SW 1022,7 - 0,0
23.04.2017 23:00:00 8,2 6,0 11 6 - - SW 1023,2 - 0,0
23.04.2017 22:00:00 8,7 6,3 11 6 - - SSW 1023,7 - 0,0
23.04.2017 21:00:00 9,0 6,9 13 7 - - SSW 1024,0 - 0,0
23.04.2017 20:00:00 9,6 6,7 15 8 - - SSW 1024,0 - 0,0
23.04.2017 19:00:00 10,7 6,7 16 9 - - SSW 1024,4 8 0,0
23.04.2017 18:00:00 11,6 7,4 13 7 - - S 1024,7 7 0,0
23.04.2017 17:00:00 12,1 8,4 21 11 - - SSW 1025,0 7 0,0
23.04.2017 16:00:00 11,9 8,3 15 8 - - SSW 1025,4 7 0,0
23.04.2017 15:00:00 12,6 9,1 16 9 - - S 1026,0 6 0,0
23.04.2017 14:00:00 11,3 7,8 16 9 - - S 1026,6 8 0,0
23.04.2017 13:00:00 11,6 8,0 16 9 - - SSW 1026,9 10 0,0
23.04.2017 12:00:00 10,9 7,5 11 6 - - SE 1027,5 10 0,0
23.04.2017 11:00:00 11,5 6,5 18 10 - - SE 1027,8 10 0,0
23.04.2017 10:00:00 10,7 6,2 18 10 - - ESE 1027,8 10 0,0
23.04.2017 09:00:00 9,9 6,9 13 7 - - E 1028,0 10 0,0
23.04.2017 08:00:00 8,5 6,5 9 5 - - E 1027,9 - 0,0
23.04.2017 07:00:00 7,4 5,8 8 4 - - ENE 1027,7 - 0,0
23.04.2017 06:00:00 5,8 4,5 4 2 - - NNE 1027,4 - 0,0
23.04.2017 05:00:00 5,4 4,3 8 4 - - ENE 1027,5 - 0,0
23.04.2017 04:00:00 4,8 3,8 4 2 - - NE 1027,6 - 0,0
23.04.2017 03:00:00 6,0 4,4 8 4 - - E 1027,8 - 0,0
23.04.2017 02:00:00 6,9 5,8 9 5 - - E 1028,0 - 0,0
23.04.2017 01:00:00 5,5 4,8 4 2 - - ENE 1028,3 - 0,0
23.04.2017 00:00:00 5,1 4,3 9 5 - - E 1028,1 - 0,0
22.04.2017 23:00:00 4,9 3,6 0 0 - - N 1028,2 - 0,0
22.04.2017 22:00:00 6,1 4,4 5 3 - - W 1028,0 - 0,0
22.04.2017 21:00:00 7,7 4,9 5 3 - - SSW 1027,8 - 0,0
22.04.2017 20:00:00 9,5 5,0 8 4 - - S 1027,5 10 0,0
22.04.2017 19:00:00 11,2 6,0 13 7 - - SSE 1027,5 10 0,0
22.04.2017 18:00:00 11,1 5,7 16 9 - - SSE 1027,6 10 0,0
22.04.2017 17:00:00 12,1 7,4 16 9 - - SE 1027,7 10 0,0
22.04.2017 16:00:00 11,1 6,7 18 10 - - SE 1028,0 10 0,0
22.04.2017 15:00:00 11,8 8,4 21 11 - - SE 1028,2 10 0,0
22.04.2017 14:00:00 12,8 6,7 15 8 - - N 1028,5 10 0,0
22.04.2017 13:00:00 12,7 6,2 16 9 - - NNW 1028,6 10 0,0
22.04.2017 12:00:00 12,8 5,7 16 9 - - N 1029,0 10 0,0
22.04.2017 11:00:00 12,4 5,5 18 10 - - N 1029,2 10 0,0
22.04.2017 10:00:00 13,0 6,1 21 11 - - N 1029,1 10 0,0
22.04.2017 09:00:00 12,0 6,8 21 11 - - N 1029,0 10 0,0
22.04.2017 08:00:00 10,9 7,1 11 6 - - N 1029,1 - 0,0
22.04.2017 07:00:00 9,5 6,5 8 4 - - N 1028,7 - 0,0
22.04.2017 06:00:00 10,4 6,5 5 3 - - NNW 1028,4 - 0,0
22.04.2017 05:00:00 10,8 6,6 8 4 - - NNW 1028,3 - 0,0
22.04.2017 04:00:00 11,3 6,4 9 5 - - NW 1028,5 - 0,0
22.04.2017 03:00:00 11,4 6,2 11 6 - - NNW 1028,8 - 0,0
22.04.2017 02:00:00 11,8 6,0 13 7 - - NW 1029,2 - 0,0
22.04.2017 01:00:00 12,3 6,4 15 8 - - NNW 1029,4 - 0,0
22.04.2017 00:00:00 11,7 7,0 8 4 - - NNW 1029,6 - 0,0
21.04.2017 23:00:00 11,7 8,0 5 3 - - N 1029,8 - 0,0
21.04.2017 22:00:00 11,8 9,2 5 3 - - N 1029,8 - 0,0
21.04.2017 21:00:00 12,0 9,8 5 3 - - WNW 1029,9 - 0,0
21.04.2017 20:00:00 12,5 10,2 9 5 - - W 1029,8 7 0,0
21.04.2017 19:00:00 13,0 9,8 9 5 - - W 1029,8 7 0,0
21.04.2017 18:00:00 13,6 9,2 9 5 - - W 1030,1 9 0,0
21.04.2017 17:00:00 13,7 9,1 15 8 - - WSW 1030,3 7 0,0
21.04.2017 16:00:00 13,6 9,9 15 8 - - WSW 1030,9 7 0,0
21.04.2017 15:00:00 12,8 9,7 21 11 - - SW 1031,4 7 0,0
21.04.2017 14:00:00 14,0 9,8 21 11 - - SW 1031,6 9 0,0
21.04.2017 13:00:00 15,2 9,0 21 11 - - SW 1032,1 10 0,0
21.04.2017 12:00:00 14,4 8,8 18 10 - - SSW 1032,7 10 0,0
21.04.2017 11:00:00 14,0 9,0 8 4 - - W 1033,1 10 0,0
21.04.2017 10:00:00 12,8 8,4 5 3 - - WSW 1033,3 9 0,0
21.04.2017 09:00:00 11,8 8,9 5 3 - - WSW 1033,1 8 0,0
21.04.2017 08:00:00 10,4 9,5 5 3 - - WSW 1033,0 6 0,0
21.04.2017 07:00:00 9,1 8,1 2 1 - - N 1032,9 - 0,0
21.04.2017 06:00:00 8,5 7,4 5 3 - - W 1032,7 - 0,0
21.04.2017 05:00:00 8,1 6,7 4 2 - - WSW 1032,8 - 0,0
21.04.2017 04:00:00 8,5 7,1 4 2 - - N 1033,0 - 0,0

tt = temperature
td = dewpoint
ff = wind speed
fx = gusts
dd = wind direction
ppp = reduced air pressure
vv = visibility
rr = precipitation

Next stations